| time (UTC) | temp F | wind direction | speed knots | gust knots | rain 1hr in | rain 24hr in | rain mn in | humidity % | barometer mb |
| 20260504211444 | 81 | 273 | 3.5 | 7.0 | 0.00 | 0.00 | 0.00 | 52 | 1004.9 |
| 20260504210942 | 81 | 189 | 5.2 | 13.9 | 0.00 | 0.00 | 0.00 | 51 | 1004.9 |
| 20260504210438 | 82 | 334 | 3.5 | 7.8 | 0.00 | 0.00 | 0.00 | 50 | 1004.9 |
| 20260504205936 | 82 | 200 | 1.7 | 7.0 | 0.00 | 0.00 | 0.00 | 49 | 1005.0 |
| 20260504205433 | 82 | 177 | 2.6 | 6.1 | 0.00 | 0.00 | 0.00 | 49 | 1005.1 |
| 20260504204931 | 83 | 211 | 1.7 | 7.0 | 0.00 | 0.00 | 0.00 | 49 | 1005.1 |
| 20260504204429 | 82 | 277 | 2.6 | 6.1 | 0.00 | 0.00 | 0.00 | 50 | 1005.1 |
| 20260504203928 | 82 | 278 | 5.2 | 8.7 | 0.00 | 0.00 | 0.00 | 49 | 1005.3 |
| 20260504203426 | 83 | 290 | 3.5 | 7.8 | 0.00 | 0.00 | 0.00 | 48 | 1005.4 |
| 20260504202921 | 83 | 19 | 2.6 | 7.0 | 0.00 | 0.00 | 0.00 | 49 | 1005.3 |
| 20260504202418 | 83 | 134 | 1.7 | 7.0 | 0.00 | 0.00 | 0.00 | 49 | 1005.5 |
| 20260504201915 | 82 | 167 | 4.3 | 6.1 | 0.00 | 0.00 | 0.00 | 48 | 1005.6 |
| 20260504201412 | 83 | 232 | 3.5 | 11.3 | 0.00 | 0.00 | 0.00 | 48 | 1005.6 |
| 20260504200910 | 84 | 142 | 3.5 | 7.8 | 0.00 | 0.00 | 0.00 | 46 | 1005.4 |
| 20260504200406 | 82 | 35 | 1.7 | 7.0 | 0.00 | 0.00 | 0.00 | 47 | 1005.7 |
| 20260504195903 | 82 | 136 | 3.5 | 6.1 | 0.00 | 0.00 | 0.00 | 48 | 1005.9 |
| 20260504195358 | 83 | 32 | 4.3 | 6.1 | 0.00 | 0.00 | 0.00 | 47 | 1005.9 |
| 20260504194855 | 82 | 274 | 7.8 | 11.3 | 0.00 | 0.00 | 0.00 | 47 | 1005.9 |
| 20260504194351 | 81 | 296 | 5.2 | 7.8 | 0.00 | 0.00 | 0.00 | 48 | 1006.2 |
| 20260504193847 | 82 | 206 | 1.7 | 11.3 | 0.00 | 0.00 | 0.00 | 49 | 1006.2 |
| 20260504193344 | 82 | 281 | 3.5 | 8.7 | 0.00 | 0.00 | 0.00 | 48 | 1006.3 |
| 20260504192843 | 81 | 2 | 2.6 | 5.2 | 0.00 | 0.00 | 0.00 | 49 | 1006.4 |
| 20260504192340 | 83 | 175 | 3.5 | 8.7 | 0.00 | 0.00 | 0.00 | 48 | 1006.5 |
| 20260504191839 | 82 | 282 | 2.6 | 7.0 | 0.00 | 0.00 | 0.00 | 48 | 1006.4 |
| 20260504191337 | 82 | 254 | 3.5 | 12.2 | 0.00 | 0.00 | 0.00 | 47 | 1006.4 |
| 20260504190832 | 80 | 285 | 1.7 | 8.7 | 0.00 | 0.00 | 0.00 | 50 | 1006.3 |
| 20260504190328 | 81 | 177 | 4.3 | 8.7 | 0.00 | 0.00 | 0.00 | 48 | 1006.6 |
| 20260504185825 | 81 | 195 | 1.7 | 7.0 | 0.00 | 0.00 | 0.00 | 49 | 1006.6 |
| 20260504185322 | 80 | 175 | 2.6 | 11.3 | 0.00 | 0.00 | 0.00 | 48 | 1006.9 |
| 20260504184818 | 80 | 303 | 3.5 | 9.6 | 0.00 | 0.00 | 0.00 | 49 | 1006.8 |
| 20260504184314 | 80 | 40 | 1.7 | 6.1 | 0.00 | 0.00 | 0.00 | 49 | 1007.1 |
| 20260504183809 | 79 | 247 | 3.5 | 7.0 | 0.00 | 0.00 | 0.00 | 49 | 1007.1 |
| 20260504183307 | 79 | 256 | 6.1 | 7.0 | 0.00 | 0.00 | 0.00 | 49 | 1007.2 |
| 20260504182805 | 79 | 175 | 1.7 | 7.0 | 0.00 | 0.00 | 0.00 | 49 | 1007.3 |
| 20260504182304 | 79 | 259 | 3.5 | 7.8 | 0.00 | 0.00 | 0.00 | 49 | 1007.3 |
| 20260504181759 | 80 | 50 | 1.7 | 7.0 | 0.00 | 0.00 | 0.00 | 49 | 1007.4 |
| 20260504181256 | 79 | 115 | 3.5 | 8.7 | 0.00 | 0.00 | 0.00 | 49 | 1007.2 |
| 20260504180755 | 79 | 228 | 5.2 | 8.7 | 0.00 | 0.00 | 0.00 | 48 | 1007.4 |
| 20260504180254 | 79 | 347 | 5.2 | 8.7 | 0.00 | 0.00 | 0.00 | 48 | 1007.4 |
| 20260504175751 | 78 | 332 | 3.5 | 7.0 | 0.00 | 0.00 | 0.00 | 49 | 1007.6 |
| 20260504175248 | 79 | 243 | 1.7 | 11.3 | 0.00 | 0.00 | 0.00 | 48 | 1007.7 |
| 20260504174745 | 79 | 38 | 2.6 | 9.6 | 0.00 | 0.00 | 0.00 | 48 | 1007.8 |
| 20260504174243 | 79 | 246 | 3.5 | 8.7 | 0.00 | 0.00 | 0.00 | 49 | 1008.0 |
| 20260504173739 | 79 | 97 | 5.2 | 9.6 | 0.00 | 0.00 | 0.00 | 47 | 1007.8 |
| 20260504173237 | 78 | 202 | 5.2 | 12.2 | 0.00 | 0.00 | 0.00 | 48 | 1008.1 |
| 20260504172733 | 79 | 250 | 3.5 | 7.8 | 0.00 | 0.00 | 0.00 | 47 | 1008.1 |
| 20260504172230 | 78 | 303 | 5.2 | 11.3 | 0.00 | 0.00 | 0.00 | 49 | 1007.9 |
| 20260504171726 | 78 | 336 | 3.5 | 7.8 | 0.00 | 0.00 | 0.00 | 48 | 1008.0 |
| 20260504171223 | 78 | 129 | 1.7 | 8.7 | 0.00 | 0.00 | 0.00 | 49 | 1008.2 |
| 20260504170720 | 78 | 172 | 3.5 | 5.2 | 0.00 | 0.00 | 0.00 | 48 | 1008.0 |
| 20260504170217 | 77 | 260 | 4.3 | 7.0 | 0.00 | 0.00 | 0.00 | 49 | 1008.1 |
| 20260504160136 | 75 | 108 | 5.2 | 11.3 | 0.00 | 0.00 | 0.00 | 49 | 1008.3 |
| 20260504151103 | 72 | 228 | 3.5 | 6.1 | 0.00 | 0.00 | 0.00 | 51 | 1008.7 |
| 20260504150601 | 72 | 275 | 2.6 | 7.8 | 0.00 | 0.00 | 0.00 | 52 | 1008.8 |
| 20260504141026 | 69 | 304 | 3.5 | 5.2 | 0.00 | 0.00 | 0.00 | 55 | 1009.2 |
| 20260504140523 | 69 | 299 | 4.3 | 7.0 | 0.00 | 0.00 | 0.00 | 55 | 1009.2 |
| 20260504130447 | 65 | 216 | 2.6 | 7.0 | 0.00 | 0.00 | 0.00 | 59 | 1009.4 |
| 20260504110334 | 64 | 263 | 0.9 | 5.2 | 0.00 | 0.00 | 0.00 | 58 | 1009.6 |
| 20260504100246 | 65 | 294 | 2.6 | 6.1 | 0.00 | 0.00 | 0.00 | 52 | 1010.1 |
| 20260504081639 | 67 | 230 | 2.6 | 6.1 | 0.00 | 0.00 | 0.00 | 47 | 1011.0 |
| 20260504081135 | 68 | 221 | 2.6 | 8.7 | 0.00 | 0.00 | 0.00 | 47 | 1011.0 |
| 20260504080632 | 68 | 221 | 2.6 | 8.7 | 0.00 | 0.00 | 0.00 | 47 | 1011.0 |
| 20260504080128 | 68 | 263 | 1.7 | 5.2 | 0.00 | 0.00 | 0.00 | 47 | 1011.0 |
| 20260504050445 | 70 | 153 | 2.6 | 8.7 | 0.00 | 0.00 | 0.00 | 43 | 1013.1 |
| 20260504045942 | 70 | 27 | 3.5 | 7.8 | 0.00 | 0.00 | 0.00 | 42 | 1013.1 |
| 20260504045437 | 70 | 256 | 5.2 | 7.8 | 0.00 | 0.00 | 0.00 | 42 | 1013.0 |
| 20260504044933 | 70 | 30 | 3.5 | 6.1 | 0.00 | 0.00 | 0.00 | 42 | 1013.1 |
| 20260504044431 | 70 | 258 | 2.6 | 5.2 | 0.00 | 0.00 | 0.00 | 42 | 1013.2 |
| 20260504043928 | 71 | 210 | 2.6 | 9.6 | 0.00 | 0.00 | 0.00 | 42 | 1013.1 |
| 20260504043425 | 71 | 247 | 3.5 | 6.1 | 0.00 | 0.00 | 0.00 | 42 | 1013.1 |
| 20260504042918 | 71 | 226 | 3.5 | 3.5 | 0.00 | 0.00 | 0.00 | 42 | 1013.1 |
| 20260504042414 | 71 | 249 | 4.3 | 7.0 | 0.00 | 0.00 | 0.00 | 42 | 1013.1 |
| 20260504041910 | 71 | 216 | 1.7 | 5.2 | 0.00 | 0.00 | 0.00 | 41 | 1013.1 |
| 20260504041406 | 71 | 231 | 3.5 | 7.8 | 0.00 | 0.00 | 0.00 | 41 | 1013.1 |
| 20260504040903 | 71 | 254 | 4.3 | 6.1 | 0.00 | 0.00 | 0.00 | 41 | 1013.3 |
| 20260504040400 | 71 | 238 | 1.7 | 11.3 | 0.00 | 0.00 | 0.00 | 41 | 1013.3 |
| 20260504035856 | 72 | 45 | 2.6 | 7.0 | 0.00 | 0.00 | 0.00 | 40 | 1013.2 |
| 20260504035354 | 72 | 209 | 1.7 | 6.1 | 0.00 | 0.00 | 0.00 | 40 | 1013.4 |
| 20260504034850 | 72 | 240 | 1.7 | 7.8 | 0.00 | 0.00 | 0.00 | 40 | 1013.4 |
| 20260504034348 | 72 | 155 | 1.7 | 7.0 | 0.00 | 0.00 | 0.00 | 40 | 1013.4 |
| 20260504033844 | 72 | 353 | 3.5 | 6.1 | 0.00 | 0.00 | 0.00 | 39 | 1013.4 |
| 20260504033343 | 72 | 166 | 3.5 | 6.1 | 0.00 | 0.00 | 0.00 | 40 | 1013.4 |
| 20260504032839 | 73 | 282 | 1.7 | 9.6 | 0.00 | 0.00 | 0.00 | 39 | 1013.5 |
| 20260504032336 | 72 | 127 | 2.6 | 7.8 | 0.00 | 0.00 | 0.00 | 39 | 1013.6 |
| 20260504031833 | 73 | 248 | 0.9 | 3.5 | 0.00 | 0.00 | 0.00 | 39 | 1013.4 |
| 20260504031330 | 73 | 203 | 3.5 | 8.7 | 0.00 | 0.00 | 0.00 | 39 | 1013.4 |
| 20260504030826 | 73 | 98 | 3.5 | 9.6 | 0.00 | 0.00 | 0.00 | 38 | 1013.5 |
| 20260504030324 | 73 | 108 | 1.7 | 7.8 | 0.00 | 0.00 | 0.00 | 39 | 1013.5 |
| 20260504025820 | 74 | 275 | 1.7 | 7.0 | 0.00 | 0.00 | 0.00 | 39 | 1013.5 |
| 20260504025317 | 74 | 138 | 2.6 | 7.8 | 0.00 | 0.00 | 0.00 | 38 | 1013.4 |
| 20260504024813 | 74 | 256 | 3.5 | 7.8 | 0.00 | 0.00 | 0.00 | 38 | 1013.4 |
| 20260504024310 | 74 | 277 | 1.7 | 6.1 | 0.00 | 0.00 | 0.00 | 38 | 1013.4 |
| 20260504023807 | 74 | 273 | 2.6 | 7.8 | 0.00 | 0.00 | 0.00 | 37 | 1013.3 |
| 20260504023304 | 74 | 62 | 4.3 | 8.7 | 0.00 | 0.00 | 0.00 | 38 | 1013.3 |
| 20260504022759 | 74 | 259 | 0.9 | 2.6 | 0.00 | 0.00 | 0.00 | 37 | 1013.3 |
| 20260504022256 | 74 | 91 | 3.5 | 6.1 | 0.00 | 0.00 | 0.00 | 37 | 1013.2 |
| 20260504021753 | 74 | 261 | 1.7 | 6.1 | 0.00 | 0.00 | 0.00 | 37 | 1013.3 |
| 20260504021250 | 75 | 254 | 1.7 | 6.1 | 0.00 | 0.00 | 0.00 | 36 | 1013.1 |
| 20260504020747 | 75 | 252 | 2.6 | 7.8 | 0.00 | 0.00 | 0.00 | 36 | 1013.0 |
| 20260504020243 | 75 | 323 | 0.9 | 2.6 | 0.00 | 0.00 | 0.00 | 37 | 1013.3 |
| 20260504015739 | 75 | 165 | 5.2 | 7.0 | 0.00 | 0.00 | 0.00 | 36 | 1013.1 |
| 20260504015236 | 75 | 72 | 3.5 | 6.1 | 0.00 | 0.00 | 0.00 | 35 | 1012.8 |
| 20260504014732 | 75 | 137 | 0.9 | 7.8 | 0.00 | 0.00 | 0.00 | 35 | 1012.8 |
| 20260504014229 | 76 | 149 | 1.7 | 3.5 | 0.00 | 0.00 | 0.00 | 35 | 1012.7 |
| 20260504013727 | 76 | 264 | 3.5 | 5.2 | 0.00 | 0.00 | 0.00 | 34 | 1012.8 |
| 20260504013224 | 76 | 291 | 2.6 | 8.7 | 0.00 | 0.00 | 0.00 | 34 | 1012.8 |
| 20260504012720 | 76 | 233 | 6.1 | 7.8 | 0.00 | 0.00 | 0.00 | 33 | 1012.8 |
| 20260504012218 | 76 | 320 | 2.6 | 8.7 | 0.00 | 0.00 | 0.00 | 33 | 1012.8 |
| 20260504011715 | 77 | 185 | 2.6 | 7.0 | 0.00 | 0.00 | 0.00 | 33 | 1012.6 |
| 20260504011212 | 77 | 239 | 3.5 | 5.2 | 0.00 | 0.00 | 0.00 | 32 | 1012.8 |
| 20260504010708 | 77 | 192 | 2.6 | 6.1 | 0.00 | 0.00 | 0.00 | 32 | 1013.0 |
| 20260504010203 | 78 | 193 | 1.7 | 7.0 | 0.00 | 0.00 | 0.00 | 31 | 1013.0 |
| 20260504005700 | 78 | 187 | 1.7 | 7.0 | 0.00 | 0.00 | 0.00 | 30 | 1013.1 |
| 20260504005157 | 78 | 290 | 0.9 | 5.2 | 0.00 | 0.00 | 0.00 | 31 | 1013.0 |
| 20260504004655 | 79 | 12 | 0.9 | 5.2 | 0.00 | 0.00 | 0.00 | 30 | 1013.0 |
| 20260504004152 | 79 | 262 | 6.1 | 11.3 | 0.00 | 0.00 | 0.00 | 30 | 1013.1 |
| 20260504003648 | 79 | 276 | 3.5 | 5.2 | 0.00 | 0.00 | 0.00 | 30 | 1012.6 |
| 20260504003145 | 79 | 270 | 1.7 | 11.3 | 0.00 | 0.00 | 0.00 | 30 | 1013.2 |
| 20260504002642 | 80 | 238 | 2.6 | 5.2 | 0.00 | 0.00 | 0.00 | 30 | 1013.0 |
| 20260504002139 | 80 | 215 | 3.5 | 7.8 | 0.00 | 0.00 | 0.00 | 29 | 1013.2 |
| 20260504001637 | 80 | 241 | 4.3 | 6.1 | 0.00 | 0.00 | 0.00 | 28 | 1013.0 |
| 20260504001133 | 81 | 275 | 4.3 | 8.7 | 0.00 | 0.00 | 0.00 | 28 | 1013.3 |
| 20260504000630 | 81 | 330 | 1.7 | 6.1 | 0.00 | 0.00 | 0.00 | 28 | 1013.3 |
| 20260504000128 | 82 | 330 | 3.5 | 6.1 | 0.00 | 0.00 | 0.00 | 28 | 1013.2 |
| 20260503235626 | 82 | 205 | 1.7 | 8.7 | 0.00 | 0.00 | 0.00 | 28 | 1013.3 |
| 20260503235122 | 82 | 45 | 0.9 | 6.1 | 0.00 | 0.00 | 0.00 | 28 | 1013.4 |
| 20260503234620 | 82 | 235 | 2.6 | 5.2 | 0.00 | 0.00 | 0.00 | 27 | 1013.5 |
| 20260503234118 | 82 | 249 | 2.6 | 12.2 | 0.00 | 0.00 | 0.00 | 26 | 1013.5 |
| 20260503233615 | 82 | 238 | 3.5 | 12.2 | 0.00 | 0.00 | 0.00 | 26 | 1013.8 |
| 20260503233110 | 82 | 265 | 2.6 | 3.5 | 0.00 | 0.00 | 0.00 | 26 | 1013.5 |
| 20260503232608 | 82 | 189 | 3.5 | 7.8 | 0.00 | 0.00 | 0.00 | 27 | 1013.5 |
| 20260503232105 | 83 | 212 | 0.9 | 7.8 | 0.00 | 0.00 | 0.00 | 27 | 1013.6 |
| 20260503231603 | 83 | 231 | 4.3 | 7.0 | 0.00 | 0.00 | 0.00 | 26 | 1013.5 |
| 20260503231059 | 82 | 210 | 7.8 | 12.2 | 0.00 | 0.00 | 0.00 | 26 | 1013.6 |
| 20260503230555 | 83 | 262 | 5.2 | 8.7 | 0.00 | 0.00 | 0.00 | 26 | 1013.7 |
| 20260503230052 | 83 | 206 | 7.8 | 12.2 | 0.00 | 0.00 | 0.00 | 25 | 1013.6 |
| 20260503225549 | 83 | 48 | 1.7 | 9.6 | 0.00 | 0.00 | 0.00 | 26 | 1013.6 |
| 20260503225044 | 83 | 149 | 3.5 | 6.1 | 0.00 | 0.00 | 0.00 | 25 | 1013.6 |
| 20260503224542 | 84 | 72 | 5.2 | 11.3 | 0.00 | 0.00 | 0.00 | 25 | 1013.6 |
| 20260503224040 | 84 | 244 | 4.3 | 7.0 | 0.00 | 0.00 | 0.00 | 25 | 1013.8 |
| 20260503223538 | 84 | 285 | 1.7 | 7.8 | 0.00 | 0.00 | 0.00 | 26 | 1013.7 |
| 20260503223033 | 84 | 143 | 1.7 | 7.8 | 0.00 | 0.00 | 0.00 | 27 | 1013.6 |
| 20260503222531 | 85 | 297 | 2.6 | 7.0 | 0.00 | 0.00 | 0.00 | 26 | 1013.7 |
| 20260503222029 | 84 | 117 | 2.6 | 6.1 | 0.00 | 0.00 | 0.00 | 26 | 1013.9 |
| 20260503221527 | 84 | 265 | 2.6 | 9.6 | 0.00 | 0.00 | 0.00 | 26 | 1013.9 |
| 20260503221024 | 85 | 136 | 4.3 | 7.0 | 0.00 | 0.00 | 0.00 | 26 | 1013.8 |
| 20260503220520 | 85 | 253 | 5.2 | 8.7 | 0.00 | 0.00 | 0.00 | 26 | 1014.0 |
| 20260503220017 | 85 | 221 | 7.0 | 11.3 | 0.00 | 0.00 | 0.00 | 27 | 1014.1 |
| 20260503215514 | 84 | 223 | 3.5 | 12.2 | 0.00 | 0.00 | 0.00 | 27 | 1014.2 |
| 20260503215011 | 85 | 220 | 3.5 | 8.7 | 0.00 | 0.00 | 0.00 | 27 | 1014.2 |
| 20260503214510 | 85 | 280 | 5.2 | 7.8 | 0.00 | 0.00 | 0.00 | 27 | 1013.9 |
| 20260503214006 | 85 | 21 | 0.9 | 7.8 | 0.00 | 0.00 | 0.00 | 27 | 1013.9 |
| 20260503213504 | 85 | 39 | 1.7 | 3.5 | 0.00 | 0.00 | 0.00 | 28 | 1014.3 |
| 20260503213000 | 85 | 176 | 5.2 | 8.7 | 0.00 | 0.00 | 0.00 | 26 | 1014.4 |
| 20260503212458 | 85 | 346 | 1.7 | 6.1 | 0.00 | 0.00 | 0.00 | 25 | 1014.7 |
| 20260503211955 | 86 | 203 | 3.5 | 7.8 | 0.00 | 0.00 | 0.00 | 24 | 1014.5 |
| 20260503211452 | 85 | 185 | 3.5 | 7.8 | 0.00 | 0.00 | 0.00 | 24 | 1014.6 |